Regional Weather Roundup
Issued by NWS

Home | Current Version | Previous Version | Text Only | Print | Product List | Glossary On
Versions: 1 2 3 4 5 6 7 8 9 10 11 12 13 14 15 16 17 18 19 20 21 22 23 24 25 26 27 28 29 30 31 32 33 34 35 36 37 38 39 40 41 42 43 44 45 46 47 48 49 50
000
ASUS44 KLIX 232013
RWRLA
LOUISIANA WEATHER ROUNDUP
NATIONAL WEATHER SERVICE NEW ORLEANS LA
300 PM CDT WED AUG 23 2017

NOTE: "FAIR" INDICATES FEW OR NO CLOUDS BELOW 12,000 FEET WITH NO
      SIGNIFICANT WEATHER AND/OR OBSTRUCTIONS TO VISIBILITY.
      SKY/WX - SKY CONDITION AND SIGNIFICANT WEATHER.
      TMP - AIR TEMPERATURE.    DP   - DEWPOINT TEMPERATURE.
      RH  - RELATIVE HUMIDITY.  PRES - PRESSURE.
      HX  - HEAT INDEX.         WCI  - WIND CHILL INDEX.

*  THESE STATIONS ARE NOT NWS OR FAA STATIONS AND ARE NOT UNDER
   NWS QUALITY CONTROL.

LAZ040-048-061>063-065-066-069-232100-
SOUTHEAST LOUISIANA

CITY           SKY/WX    TMP DP  RH WIND       PRES   REMARKS
N.O. INTL ARPT PTSUNNY   90  72  55 E8        29.91F HX  97
N.O. LAKEFRONT MOSUNNY   89  76  65 NW6       29.92F HX 100
N.O. DOWNTOWN* MOCLDY    90  74  59 VRB5      29.92F HX  99
RESERVE*       MOCLDY    91  72  52 E6        29.91F HX  99
SLIDELL        CLOUDY    90  73  57 CALM      29.90F HX  98
BATON ROUGE    MOSUNNY   91  71  51 VRB3      29.91F HX  97
BOOTHVILLE     CLOUDY    87  76  69 E6        29.93F HX  97
BELLE CHASSE   NOT AVBL
BOGALUSA*      FAIR      92  71  49 CALM      29.93F HX  98
GALLIANO*      CLOUDY    89  74  60 CALM      29.91F HX  97
NEW ROADS*     MOCLDY    88  74  61 NE3       29.92F HX  96
GONZALES*      FAIR      89  71  54 E3        29.91F HX  95
HAMMOND*       CLOUDY    90  70  51 CALM      29.92F HX  95
HOUMA*         MOSUNNY   90  75  62 N5        29.91F HX 100
PORT FOURCHON* MOCLDY    86  75  70 SE5G13    29.92F HX  95

$$

LAZ041-044-053-054-232100-
SOUTHWEST LOUISIANA

CITY           SKY/WX    TMP DP  RH WIND       PRES   REMARKS
LAKE CHARLES   CLOUDY    90  74  59 E6        29.90F HX  99
LAFAYETTE      MOSUNNY   92  73  53 VRB5      29.91F HX 100
PATTERSON      PTSUNNY   87  75  67 NE8       29.92F HX  96
SALT POINT       N/A     88  75  65 CALM      29.90F HX  97
NEW IBERIA     SUNNY     92  71  50 VRB6      29.91F HX  98
CHENAULT AIRPK PTSUNNY   91  75  59 E6        29.90F HX 102

$$

LAZ027-028-232100-
CENTRAL LOUISIANA

CITY           SKY/WX    TMP DP  RH WIND       PRES   REMARKS
FORT POLK      CLOUDY    80  74  81 N3        29.94F
ALEXANDRIA INT   N/A    N/A N/A N/A MISG      29.91F
ALEXANDRIA     PTSUNNY   90  75  61 E6        29.91F HX 100

$$

LAZ001-002-232100-
NORTHWEST LOUISIANA

CITY           SKY/WX    TMP DP  RH WIND       PRES   REMARKS
SHREVEPORT     MOSUNNY   91  74  57 N9        29.91F HX 100
BARKSDALE AFB  MOSUNNY   91  73  55 NE6       29.91F HX 100
DTN SHREVEPORT MOSUNNY   95  74  50 N9        29.92F HX 105

$$

LAZ014-016-232100-
NORTHEAST LOUISIANA

CITY           SKY/WX    TMP DP  RH WIND       PRES   REMARKS
MONROE         PTSUNNY   94  76  55 N9        29.91F HX 106
TALLULAH       SUNNY     93  76  57 VRB6      29.91F HX 105

$$




USA.gov is the U.S. government's official web portal to all federal, state and local government web resources and services.